Location: Moscow
(38.3171°N, 79.0889°W)
Time: 01:28:30
(UTC+00:00)

Helios 1A Rocket - Pass Details

Date: 07 November 2025
Orbit: 439 x 452 km, 98.3° (Epoch: 08 December)

Event Time Altitude Azimuth Distance (km) Brightness Sun altitude
Exits shadow 23:40:27 - 5° (N) 1,760 5.3 -18.0°
Reaches altitude 10° 23:40:55 10° 4° (N) 1,562 5.0 -18.1°
Maximum altitude 23:44:12 57° 286° (WNW) 528 3.0 -18.7°
Drops below altitude 10° 23:47:28 10° 206° (SSW) 1,556 5.5 -19.3°
Sets 23:49:30 0° 203° (SSW) 2,425 6.5 -19.7°
